This is the latest recevied weather packets stored in our database for station/object KB3HLL. If no packets are shown the sender has not sent any weather packets the latest 10 day(s).
| Time | Temp. | Humidity | Pressure | Rain* | Wind** | Luminosity | Snow |
|---|---|---|---|---|---|---|---|
| 1777977977 | 15.56° C | 73% | 1011.2 hPa | 0 mm | - | 44 W/m² | - |
| 1777977677 | 15° C | 75% | 1011.1 hPa | 0 mm | - | 34 W/m² | - |
| 1777977378 | 15° C | 76% | 1011.1 hPa | 0 mm | - | 27 W/m² | - |
| 1777977079 | 15° C | 76% | 1011.1 hPa | 0 mm | - | 26 W/m² | - |
| 1777976777 | 15° C | 77% | 1011 hPa | 0 mm | - | 21 W/m² | - |
| 1777976479 | 15° C | 76% | 1010.9 hPa | 0 mm | - | 15 W/m² | - |
| 1777976179 | 15.56° C | 76% | 1011 hPa | 0.51 mm | - | 13 W/m² | - |
| 1777975878 | 15.56° C | 76% | 1011 hPa | 0.51 mm | - | 7 W/m² | - |
| 1777975579 | 15.56° C | 76% | 1011.1 hPa | 0.51 mm | - | 4 W/m² | - |
| 1777975279 | 15.56° C | 74% | 1011.1 hPa | 0.51 mm | - | 2 W/m² | - |
| 1777974977 | 15.56° C | 74% | 1011 hPa | 0.51 mm | - | 1 W/m² | - |
| 1777974680 | 15° C | 76% | 1011 hPa | 0.51 mm | - | 1 W/m² | - |
| 1777974380 | 15° C | 75% | 1011 hPa | 0.51 mm | - | 0 W/m² | - |
| 1777974079 | 14.44° C | 79% | 1010.9 hPa | 0.51 mm | - | 0 W/m² | - |
| 1777973777 | 13.89° C | 78% | 1010.8 hPa | 0.51 mm | - | 0 W/m² | - |
| 1777973478 | 13.89° C | 81% | 1010.7 hPa | 0.51 mm | - | 0 W/m² | - |
| 1777973180 | 13.89° C | 81% | 1010.6 hPa | 2.03 mm | - | 0 W/m² | - |
| 1777972878 | 13.33° C | 84% | 1010.7 hPa | 2.03 mm | - | 0 W/m² | - |
| 1777972579 | 13.33° C | 85% | 1010.6 hPa | 2.03 mm | - | 0 W/m² | - |
| 1777972280 | 13.89° C | 86% | 1010.4 hPa | 2.03 mm | - | 0 W/m² | - |
| 1777971979 | 14.44° C | 75% | 1010.5 hPa | 0 mm | - | 0 W/m² | - |
| 1777971679 | 14.44° C | 75% | 1010.4 hPa | 0 mm | - | 0 W/m² | - |
| 1777971380 | 15° C | 74% | 1010.4 hPa | 0 mm | - | 0 W/m² | - |
| 1777971078 | 15° C | 74% | 1010.5 hPa | 0 mm | - | 0 W/m² | - |
| 1777970778 | 15° C | 74% | 1010.5 hPa | 0 mm | - | 0 W/m² | - |
* Rain latest hour (hover to see other rain measurements)
** Current wind speed in m/s (hover to see current wind gust speed)